Location: Cran-Gévrier
(45.9039°N, 6.1012°E)
Time: 17:17:14
(UTC+00:00)

Cosmos 1400 Rocket - Visible Passes

Search period start: 30 September 2023 00:00
Search period end: 10 October 2023 00:00
Orbit: 510 x 553 km, 81.2° (Epoch: 29 September)

Date Brightness Start Highest point End Pass type
(mag) Time Alt. Az. Time Alt. Az. Time Alt. Az.
30 Sep 5.4 19:54:17 10° N 19:54:46 13° N 19:54:46 13° N visible
01 Oct 5.3 19:44:13 10° N 19:44:51 14° NNE 19:44:51 14° NNE visible
02 Oct 5.2 19:34:08 10° N 19:34:56 15° NNE 19:34:56 15° NNE visible
03 Oct 5.0 19:24:02 10° N 19:25:02 16° NNE 19:25:02 16° NNE visible
04 Oct 4.9 19:13:56 10° N 19:15:09 17° NNE 19:15:09 17° NNE visible
04 Oct 6.1 20:50:16 10° NW 20:50:30 11° NW 20:50:30 11° NW visible
05 Oct 4.7 19:03:50 10° NNE 19:05:18 18° NNE 19:05:18 18° NNE visible
05 Oct 5.9 20:40:06 10° NW 20:40:38 13° NW 20:40:38 13° NW visible
06 Oct 4.5 18:53:44 10° NNE 18:55:27 19° NNE 18:55:27 19° NNE visible
06 Oct 5.8 20:29:55 10° NW 20:30:48 15° NW 20:30:48 15° NW visible
07 Oct 4.4 18:43:36 10° NNE 18:45:38 21° NE 18:45:38 21° NE visible
07 Oct 5.6 20:19:43 10° NNW 20:20:59 17° NW 20:20:59 17° NW visible
08 Oct 4.2 18:33:29 10° NNE 18:35:52 22° NE 18:35:52 22° NE visible
08 Oct 5.3 20:09:31 10° NNW 20:11:13 20° NW 20:11:13 20° NW visible
09 Oct 4.1 18:23:21 10° NNE 18:26:09 23° ENE 18:26:09 23° ENE visible
09 Oct 5.1 19:59:19 10° NNW 20:01:29 24° WNW 20:01:29 24° WNW visible
